Flag for Marshall Islands Weather past 2 weeks in Majuro, Marshall Islands

Now
86 °F

Cloudy.


Feels Like: 96 °F
Forecast: 81 / 87 °F
Wind: 7 mph from South

Location: Majuro Atoll

Current Time: Sep 23, 2014 at 5:25:34 PM

Latest Report: Sep 23, 2014 at 3:56 PM


Visibility: 15 mi

Pressure: 29.78 "Hg

Humidity: 74%

Dew point: 77 °F

Location of MajuroLocation

Historic Weather in Majuro — Graph

°F

Majuro temperature yesterday

Maximum temperature yesterday: 86 °F (at 3:56 PM)
Minimum temperature yesterday: 76 °F (at 12:54 AM)
Average temperature yesterday: 81 °F

Past Weeks' High & Low Weather Summary

 TemperatureHumidityPressure
High89 °F (Sep 15, 12:51 PM)95% (Sep 17, 4:52 AM)29.90 "Hg (Sep 17, 4:52 AM)
Low76 °F (Sep 22, 12:54 AM)66% (Sep 10, 2:55 PM)29.71 "Hg (Sep 15, 2:51 PM)
Average84 °F79%29.80 "Hg
* Reported Sep 8 3:56 PM — Sep 23 3:56 PM, Majuro, Weather by CustomWeather, © 2014

Note: Actual official high and low records may vary slightly from our data, if they occured in-between our weather recording intervals... More about our weather records

Advertising

Majuro weather history for previous 24 hours

 ConditionsComfort  
Time TempWeatherWind HumidityBarometerVisibility
3:56 PM
Sep 23
86 °FCloudy.7 mph74%29.78 "Hg15 mi
2:53 PM87 °FMore clouds than sun.7 mph71%29.79 "Hg15 mi
1:53 PM87 °FMore clouds than sun.10 mph70%29.80 "Hg15 mi
12:54 PM87 °FCloudy.10 mph72%29.82 "Hg15 mi
11:52 AM87 °FCloudy.10 mph71%29.83 "Hg15 mi
10:52 AM85 °FCloudy.12 mph75%29.83 "Hg15 mi
9:53 AM83 °FCloudy.12 mph78%29.84 "Hg15 mi
8:51 AM83 °FCloudy.12 mph79%29.85 "Hg15 mi
7:52 AM82 °FCloudy.10 mph82%29.83 "Hg15 mi
6:52 AM81 °FOvercast.17 mph82%29.82 "Hg15 mi
5:54 AM81 °FOvercast.14 mph84%29.79 "Hg15 mi
4:54 AM80 °FOvercast.7 mph86%29.78 "Hg15 mi
3:54 AM80 °FOvercast.8 mph89%29.77 "Hg15 mi
2:54 AM77 °FOvercast.17 mph91%29.80 "Hg15 mi
1:55 AM77 °FSprinkles. Overcast.14 mph93%29.82 "Hg8 mi
12:57 AM79 °FOvercast.8 mph90%29.82 "Hg15 mi
11:55 PM
Sep 22
78 °FOvercast.No wind93%29.82 "Hg15 mi
10:52 PM77 °FSprinkles. Overcast.5 mph94%29.84 "Hg10 mi
9:54 PM77 °FSprinkles. Overcast.14 mph95%29.85 "Hg10 mi
8:57 PM79 °FLight rain. Overcast.No wind93%29.82 "Hg14 mi
7:56 PM80 °FLight rain. Overcast.No wind90%29.79 "Hg14 mi
6:53 PM82 °FCloudy.9 mph89%29.76 "Hg15 mi
5:51 PM85 °FCloudy.9 mph78%29.74 "Hg15 mi
Weather by CustomWeather, © 2014

See weather overviewHow to use our weather pages